Вернуться в каталог

USA 285

АктивенВоенныеGEO
NORAD 43445·PAYLOAD·🇺🇸 United States

Запущен Apr 14, 2018 с Cape Canaveral Space Force Station

Loading…

TLE

СвежийSource: Space-Track

Эпоха: Sep 11, 2026, 18:53 UTC

1 43445U 18036E   26254.78736096 -.00000059  00000-0  00000-0 0  9998
2 43445   7.3226  65.8755 0011091 170.1684 357.7542  1.02112295 27822

Отслеживайте USA 285 в реальном времени с AllMySat

Download on the App Store